CAPE
0 0 0 0 0 0 0 0 0 0 0 0 0 0 0 0 0 0 0 0 0 0 0 0 0 0 0 0 0 0 0 0 0 0 0 0 0 0 0 0 0 0
0 0 0 0 0 0 0 0 0 0 0 0 0 0 0 0 0 0 0 0 0 0 0 0 0 0 0 0 0 0 0 0 0 0 0 0 0 0 0 0 0 0
0 0 0 0 0 0 0 0 0 0 0 0 0 0 0 0 0 0 0 0 0 0 0 0 0 0 0 0 0 0 0 0 0 0 0 0 0 0 0 0 0 0
0 0 0 0 0 0 0 0 0 0 0 0 0 0 0 0 0 0 0 0 0 0 0 0 0 0 0 0 0 0 0 0 0 0 0 0 0 0 0 0 0 0
120 0 0 0 0 1 3 47 189 43 134 140 116 97 21 0 0 0 0 0 0 0 0 0 0 0 0 0 0 0 0 0 0 0 0 0 0 0 0 0 0 0
267 3 0 0 5 1 9 16 264 244 212 182 163 138 122 71 0 0 0 0 0 0 0 0 0 0 0 0 0 0 0 0 0 0 0 0 0 0 0 0 0 0
168 77 35 1 2 149 113 14 39 30 44 145 115 18 27 28 14 7 4 112 46 94 80 0 0 0 0 0 0 0 0 0 0 0 0 0 0 0 0 0 0 0
474 288 134 79 1 54 1 8 24 42 59 92 37 209 182 12 19 23 161 147 20 6 12 147 3 0 0 0 0 0 0 0 0 0 0 0 0 0 0 0 0 0
666 559 22 6 16 10 418 172 51 150 53 70 32 247 105 1 178 171 216 227 194 161 190 191 140 133 82 0 0 0 0 0 0 0 0 0 0 0 0 0 0 0
769 724 581 486 444 398 91 372 144 382 62 336 310 241 259 0 13 234 259 255 210 194 220 201 20 0 170 170 180 186 0 0 0 0 0 0 0 0 0 0 0 0
676 738 568 517 591 468 408 394 251 209 440 234 176 199 381 250 373 361 368 350 305 278 269 238 0 0 2 197 201 86 0 102 0 0 0 0 0 0 0 0 0 0
444 501 510 435 393 400 381 496 575 454 5 20 4 0 413 416 456 459 445 458 437 419 381 334 92 0 0 110 185 221 33 71 162 0 0 0 0 0 0 118 7 6
445 632 481 524 515 636 656 621 577 460 372 302 0 57 111 3 4 386 420 421 426 396 357 340 119 0 48 236 236 152 0 1 0 0 0 0 0 0 85 160 35 0
563 705 784 706 618 599 747 795 664 563 443 284 450 384 295 338 347 136 373 399 403 385 386 373 366 381 362 182 0 0 1 20 1 0 0 0 1 0 90 161 144 131
331 303 409 404 516 627 654 635 688 561 453 418 454 520 681 677 658 641 612 579 546 518 494 477 487 498 478 384 198 0 0 16 0 0 0 176 72 0 0 57 166 151
116 109 308 443 520 550 446 444 462 436 419 403 470 551 601 634 639 660 659 633 595 550 503 497 514 512 512 471 416 358 43 268 299 318 330 314 233 0 106 200 216 180
104 470 539 428 434 421 369 348 392 412 410 385 381 385 372 430 499 514 554 572 550 550 543 553 574 597 593 574 545 488 448 417 403 422 415 354 279 219 238 226 232 192
0 0 0 0 0 0 0 47 54 180 268 279 308 348 386 442 510 538 526 522 499 474 464 460 483 496 514 546 604 623 609 575 525 471 431 382 320 302 286 242 234 200
0 0 0 0 0 0 0 0 0 0 0 0 0 2 119 273 307 374 407 457 514 527 527 522 485 481 475 492 541 590 609 612 608 607 578 449 374 368 298 179 140 153
0 0 0 0 0 0 0 0 0 0 0 0 0 0 2 36 47 77 162 213 272 316 376 479 573 583 557 586 622 592 578 602 626 590 524 432 339 242 130 24 34 0
0 0 0 0 0 0 0 0 0 0 0 0 0 0 0 0 0 0 0 0 0 0 100 189 288 447 666 752 701 610 566 625 627 560 423 303 264 246 166 0 0 0
0 0 0 0 0 0 0 0 0 0 0 0 0 0 0 0 0 0 0 0 0 0 0 0 131 245 454 587 613 611 629 578 522 424 320 245 170 0 0 0 0 0
0 0 0 0 0 0 0 0 0 0 0 0 0 0 0 0 0 0 0 0 0 0 0 0 0 0 197 400 556 618 547 470 386 313 270 225 191 28 0 0 21 42
0 0 0 0 0 0 0 0 0 0 0 0 0 0 0 0 0 0 0 0 0 0 0 0 0 0 0 242 384 516 544 496 392 334 273 205 173 132 113 0 0 0
0 0 0 0 0 0 0 0 0 0 0 0 0 0 0 0 0 0 0 0 0 0 0 0 0 0 0 193 277 326 342 321 306 280 243 177 0 0 0 39 28 16
0 0 0 0 0 0 0 0 0 0 0 0 0 0 0 0 0 0 0 0 0 0 0 0 0 0 0 132 196 242 266 258 243 217 205 165 106 7 24 0 0 8
Wind_Speed
nan nan nan nan nan nan nan nan nan nan nan nan nan nan nan nan nan nan nan nan nan nan nan nan nan nan nan nan nan nan nan nan nan nan nan nan nan nan nan nan nan nan
nan nan nan nan nan nan nan nan nan nan nan nan nan nan nan nan nan nan nan nan nan nan nan nan nan nan nan nan nan nan nan nan nan nan nan nan nan nan nan nan nan nan
nan nan nan nan nan nan nan nan nan nan nan nan nan nan nan nan nan nan nan nan nan nan nan nan nan nan nan nan nan nan nan nan nan nan nan nan nan nan nan nan nan nan
nan nan nan nan nan nan nan nan nan nan nan nan nan nan nan nan nan nan nan nan nan nan nan nan nan nan nan nan nan nan nan nan nan nan nan nan nan nan nan nan nan nan
26 nan nan nan nan nan nan nan 17 nan 16 17 18 nan nan nan nan nan nan nan nan nan nan nan nan nan nan nan nan nan nan nan nan nan nan nan nan nan nan nan nan nan
23 nan nan nan nan nan nan nan 18 18 15 16 18 20 20 nan nan nan nan nan nan nan nan nan nan nan nan nan nan nan nan nan nan nan nan nan nan nan nan nan nan nan
24 nan nan nan nan 19 20 nan nan nan nan 15 19 nan nan nan nan nan nan 19 nan nan nan nan nan nan nan nan nan nan nan nan nan nan nan nan nan nan nan nan nan nan
25 24 24 nan nan nan nan nan nan nan nan nan nan 20 21 nan nan nan 21 21 nan nan nan 21 nan nan nan nan nan nan nan nan nan nan nan nan nan nan nan nan nan nan
29 29 nan nan nan nan 29 27 nan 26 nan nan nan 23 23 nan 21 21 21 22 23 25 24 23 22 20 nan nan nan nan nan nan nan nan nan nan nan nan nan nan nan nan
30 28 29 30 30 28 nan 28 30 30 nan 27 27 28 27 nan nan 24 24 24 26 30 30 26 nan nan 21 20 21 22 nan nan nan nan nan nan nan nan nan nan nan nan
29 29 28 27 30 30 28 29 30 30 29 27 30 31 29 28 25 25 26 25 25 29 31 30 nan nan nan 23 24 nan nan 26 nan nan nan nan nan nan nan nan nan nan
26 28 26 24 28 31 30 32 33 34 nan nan nan nan 30 29 28 25 25 25 24 26 27 27 nan nan nan 25 25 26 nan nan 28 nan nan nan nan nan nan 24 nan nan
32 31 32 31 29 30 33 33 32 32 33 29 nan nan 30 nan nan 29 26 27 26 26 26 25 25 nan nan 26 23 22 nan nan nan nan nan nan nan nan nan 25 nan nan
35 35 34 32 33 34 32 32 34 33 33 32 32 34 35 34 32 31 29 30 30 30 29 29 28 28 29 28 nan nan nan nan nan nan nan nan nan nan nan 23 23 25
37 38 36 37 38 37 34 34 35 36 37 38 39 38 36 35 34 34 35 34 33 34 34 34 34 33 32 32 32 nan nan nan nan nan nan 29 nan nan nan nan 25 27
39 40 41 42 41 39 37 37 38 39 41 41 42 41 40 38 37 37 37 38 38 38 38 38 38 38 36 34 35 37 nan 33 32 32 33 33 32 nan 31 33 35 37
41 41 43 42 41 41 41 42 41 42 43 43 43 43 43 43 43 42 41 42 42 42 42 42 42 41 38 38 37 36 37 35 35 35 36 36 36 37 38 39 41 41
nan nan nan nan nan nan nan nan nan 46 46 46 46 46 47 48 48 46 46 47 47 46 45 44 43 42 41 40 39 38 38 39 40 40 40 40 40 41 40 42 44 44
nan nan nan nan nan nan nan nan nan nan nan nan nan nan 49 49 48 48 47 48 49 47 45 44 42 39 41 39 39 40 40 41 42 41 41 41 43 43 43 43 44 46
nan nan nan nan nan nan nan nan nan nan nan nan nan nan nan nan nan nan 46 47 47 46 44 43 42 36 35 37 39 42 45 45 42 43 43 44 43 44 44 nan nan nan
nan nan nan nan nan nan nan nan nan nan nan nan nan nan nan nan nan nan nan nan nan nan nan 43 41 39 38 36 39 44 45 45 42 43 43 43 43 44 45 nan nan nan
nan nan nan nan nan nan nan nan nan nan nan nan nan nan nan nan nan nan nan nan nan nan nan nan 44 45 44 42 42 46 49 48 47 47 47 48 48 nan nan nan nan nan
nan nan nan nan nan nan nan nan nan nan nan nan nan nan nan nan nan nan nan nan nan nan nan nan nan nan 44 45 45 49 53 52 52 53 52 52 51 nan nan nan nan nan
nan nan nan nan nan nan nan nan nan nan nan nan nan nan nan nan nan nan nan nan nan nan nan nan nan nan nan 47 47 48 52 53 54 55 55 55 56 54 55 nan nan nan
nan nan nan nan nan nan nan nan nan nan nan nan nan nan nan nan nan nan nan nan nan nan nan nan nan nan nan 53 54 54 54 53 55 56 57 55 nan nan nan nan nan nan
nan nan nan nan nan nan nan nan nan nan nan nan nan nan nan nan nan nan nan nan nan nan nan nan nan nan nan 59 59 60 59 57 55 57 57 56 56 nan nan nan nan nan
Wind_Direction
nan nan nan nan nan nan nan nan nan nan nan nan nan nan nan nan nan nan nan nan nan nan nan nan nan nan nan nan nan nan nan nan nan nan nan nan nan nan nan nan nan nan
nan nan nan nan nan nan nan nan nan nan nan nan nan nan nan nan nan nan nan nan nan nan nan nan nan nan nan nan nan nan nan nan nan nan nan nan nan nan nan nan nan nan
nan nan nan nan nan nan nan nan nan nan nan nan nan nan nan nan nan nan nan nan nan nan nan nan nan nan nan nan nan nan nan nan nan nan nan nan nan nan nan nan nan nan
nan nan nan nan nan nan nan nan nan nan nan nan nan nan nan nan nan nan nan nan nan nan nan nan nan nan nan nan nan nan nan nan nan nan nan nan nan nan nan nan nan nan
296 nan nan nan nan nan nan nan 272 nan 288 299 298 nan nan nan nan nan nan nan nan nan nan nan nan nan nan nan nan nan nan nan nan nan nan nan nan nan nan nan nan nan
292 nan nan nan nan nan nan nan 270 276 285 286 300 295 297 nan nan nan nan nan nan nan nan nan nan nan nan nan nan nan nan nan nan nan nan nan nan nan nan nan nan nan
294 nan nan nan nan 285 280 nan nan nan nan 287 279 nan nan nan nan nan nan 304 nan nan nan nan nan nan nan nan nan nan nan nan nan nan nan nan nan nan nan nan nan nan
279 283 292 nan nan nan nan nan nan nan nan nan nan 282 284 nan nan nan 299 299 nan nan nan 290 nan nan nan nan nan nan nan nan nan nan nan nan nan nan nan nan nan nan
276 277 nan nan nan nan 266 264 nan 256 nan nan nan 271 270 nan 283 286 291 291 290 291 292 293 295 292 nan nan nan nan nan nan nan nan nan nan nan nan nan nan nan nan
281 280 277 278 282 283 nan 269 270 266 nan 269 271 269 271 nan nan 278 279 283 287 287 289 291 nan nan 289 287 287 288 nan nan nan nan nan nan nan nan nan nan nan nan
282 279 276 275 280 275 272 273 276 274 269 275 278 278 277 277 276 274 275 278 284 287 287 288 nan nan nan 289 287 nan nan 291 nan nan nan nan nan nan nan nan nan nan
278 282 282 280 280 282 281 282 284 281 nan nan nan nan 280 281 281 278 279 280 277 279 283 285 nan nan nan 288 287 291 nan nan 291 nan nan nan nan nan nan 280 nan nan
286 285 285 278 273 277 281 279 277 272 271 274 nan nan 281 nan nan 278 275 277 277 277 280 286 288 nan nan 279 285 295 nan nan nan nan nan nan nan nan nan 281 nan nan
287 284 280 278 276 275 276 275 275 277 280 278 275 279 282 286 286 283 282 281 281 282 280 282 284 280 276 274 nan nan nan nan nan nan nan nan nan nan nan 282 286 285
283 280 281 278 275 273 274 277 281 283 283 283 282 283 283 283 281 281 281 281 281 283 284 284 286 287 284 282 281 nan nan nan nan nan nan 292 nan nan nan nan 287 289
284 280 277 276 278 282 282 279 277 276 276 276 277 280 281 282 282 281 281 282 281 279 280 282 285 285 287 292 289 286 nan 288 285 285 286 287 286 nan 279 280 285 287
282 282 281 281 282 281 280 279 279 279 279 279 280 281 282 283 284 283 282 281 281 281 281 282 283 284 290 293 295 294 288 285 283 281 281 282 282 282 281 280 280 284
nan nan nan nan nan nan nan nan nan 279 279 279 280 281 282 282 283 283 281 281 280 280 280 281 282 286 291 292 292 292 288 283 281 279 278 279 279 279 279 279 281 281
nan nan nan nan nan nan nan nan nan nan nan nan nan nan 279 281 282 282 282 281 281 281 280 279 279 282 287 288 287 287 287 281 277 278 279 278 277 279 277 277 277 277
nan nan nan nan nan nan nan nan nan nan nan nan nan nan nan nan nan nan 281 282 283 284 283 282 281 279 279 282 284 284 283 281 278 278 278 279 280 280 280 nan nan nan
nan nan nan nan nan nan nan nan nan nan nan nan nan nan nan nan nan nan nan nan nan nan nan 282 282 274 269 273 274 280 285 284 278 277 278 277 275 274 275 nan nan nan
nan nan nan nan nan nan nan nan nan nan nan nan nan nan nan nan nan nan nan nan nan nan nan nan 273 268 267 270 282 287 288 283 280 278 276 274 273 nan nan nan nan nan
nan nan nan nan nan nan nan nan nan nan nan nan nan nan nan nan nan nan nan nan nan nan nan nan nan nan 264 272 280 284 281 279 277 276 275 274 273 nan nan nan nan nan
nan nan nan nan nan nan nan nan nan nan nan nan nan nan nan nan nan nan nan nan nan nan nan nan nan nan nan 269 274 279 277 277 276 276 275 274 273 270 270 nan nan nan
nan nan nan nan nan nan nan nan nan nan nan nan nan nan nan nan nan nan nan nan nan nan nan nan nan nan nan 270 273 274 273 273 275 275 275 273 nan nan nan nan nan nan
nan nan nan nan nan nan nan nan nan nan nan nan nan nan nan nan nan nan nan nan nan nan nan nan nan nan nan 270 271 272 274 274 274 275 275 274 273 nan nan nan nan nan